Location: Fort Worth, Tx
(32.7431°N, 97.3695°W)
Time: 01:03:44
(UTC-04:00)

A-11 Canister half - Pass Details

Date: 29 February 2024
Orbit: 1525 x 1683 km, 47.3° (Epoch: 24 April)

Event Time Altitude Azimuth Distance (km) Brightness Sun altitude
Exits shadow 04:45:04 21° 155° (SSE) 2,914 10.4 -40.8°
Drops below altitude 10° 04:47:46 10° 149° (SSE) 3,730 11.1 -40.3°
Sets 04:50:55 0° 146° (SE) 4,731 11.7 -39.7°
